Location: Falniów
(50.3639°N, 19.9642°E)
Time: 14:47:59
(UTC+00:00)

Cosmos 1821 Rocket - Pass Details

Date: 18 January 2026
Orbit: 943 x 1004 km, 82.9° (Epoch: 9 February)

Event Time Altitude Azimuth Distance (km) Brightness Sun altitude
Rises 05:22:15 0° 181° (S) 3,716 7.3 -10.8°
Reaches altitude 10° 05:24:47 10° 179° (S) 2,767 6.6 -10.4°
Maximum altitude 05:31:07 75° 96° (E) 1,035 4.3 -9.5°
Drops below altitude 10° 05:37:26 10° 13° (NNE) 2,755 6.3 -8.5°
Sets 05:39:57 0° 11° (NNE) 3,699 6.9 -8.2°
